User: anonymous   Login
Location: Melbourne
(37.8170°S, 144.9670°E)
Time: 11:23:54
(UTC+11:00)
Language:

ISS - Orbit

View from above orbital plane
View from above orbital plane
View from above satellite
View from above satellite

Ground track
Ground track

The orbit data is extracted from the following two-line orbital elements,

1 25544U 98067A   17023.55007110  .00016717  00000-0  10270-3 0  9032
2 25544  51.6426  39.3555 0007521 110.9075 249.2883 15.54130116 39256
Epoch (UTC): 23 January 2017 13:12:06
Eccentricity: 0.0007521
inclination: 51.6426°
perigee height: 399 km
apogee height: 410 km
right ascension of ascending node: 39.3555°
argument of perigee: 110.9075°
revolutions per day: 15.54130116
mean anomaly at epoch: 249.2883°
orbit number at epoch: 3925

The dashed part of the orbit path shows where the satellite is in the earth's shadow,  

DLR